METAR LSZC 020350Z AUTO 20004KT 9999 FEW018 OVC030 03/02 Q1018
TAF LSZC 020225Z 0203/0212 VRB02KT 9999 BKN018 PROB40 TEMPO 0203/0209 BKN014 PROB30 TEMPO 0203/0207 4000 DZ

Privacy Settings
We use cookies to enhance your experience while using our website. If you are using our Services via a browser you can restrict, block or remove cookies through your web browser settings. We also use content and scripts from third parties that may use tracking technologies. You can selectively provide your consent below to allow such third party embeds. For complete information about the cookies we use, data we collect and how we process them, please check our Privacy Policy
Youtube
Consent to display content from Youtube
Vimeo
Consent to display content from Vimeo
Google Maps
Consent to display content from Google